Regional Weather Roundup
Issued by NWS Sterling, VA

Home | Current Version | Previous Version | Text Only | Print | Product List | Glossary Off
Versions: 1 2 3 4 5 6 7 8 9 10 11 12 13 14 15 16 17 18 19 20 21 22 23 24 25 26 27 28

000
ASUS41 KLWX 230811
RWRLWX

REGIONAL WEATHER ROUNDUP
NATIONAL WEATHER SERVICE BALTIMORE MD/WASHINGTON DC
400 AM EDT FRI JUN 23 2017

Note: "FAIR" indicates few or no clouds below 12,000 feet
with no significant weather and/or obstructions to visibility.
 TC=TEMPERATURE CELSIUS

 * =Non NWS site. Station does not report precipitation (e.g. rain,
    snow, etc.), thunder, or fog.

DCZ001-MDZ009-015-VAZ040>042-051-053>054-230900-
WASHINGTON METRO

CITY           SKY/WX    TMP DP  RH WIND       PRES   REMARKS
WASHINGTON NAT CLOUDY    78  74  87 S9        29.88F
DULLES         CLOUDY    74  70  87 S9        29.88F
FT BELVOIR     CLOUDY    77  70  79 CALM      29.88F
QUANTICO       CLOUDY    78  72  81 W9        29.89F
COLLEGE PARK*  CLOUDY    77  70  78 SW6       29.87F
LEESBURG*      CLOUDY    73  73 100 SW3       29.88F
MANASSAS*      CLOUDY    76  71  85 SW9       29.89F
GAITHERSBURG*  CLOUDY    75  70  84 CALM      29.89F

$$

MDZ006>007-011-014-230900-
BALTIMORE METRO

CITY           SKY/WX    TMP DP  RH WIND       PRES   REMARKS
BWI AIRPORT    CLOUDY    76  73  91 SW7       29.86F
MD SCIENCE CTR   N/A     79  73  82 MISG      29.86F
MARTIN STATE   MOCLDY    77  73  88 S7        29.87F
ANNAPOLIS      CLOUDY    78  74  87 VRB6      29.86F
FORT MEADE*    CLOUDY    70  70 100 CALM      29.89F

$$

MDZ012-015-019>023-230900-
MARYLAND EASTERN SHORE

CITY           SKY/WX    TMP DP  RH WIND       PRES   REMARKS
OCEAN CITY     MOCLDY    77  73  87 SW8       29.91F
SALISBURY      MOCLDY    74  73  97 S5        29.90F
BAY BRIDGE AP* PTCLDY    77  72  83 SW6       29.87F
CAMBRIDGE*     CLEAR     77  70  78 CALM      29.89F
EASTON*        MOCLDY    78  71  79 W8        29.92F

$$

MDZ017>025-230900-
SOUTHERN MARYLAND

CITY           SKY/WX    TMP DP  RH WIND       PRES   REMARKS
PATUXENT RIVER CLOUDY    77  70  79 SW8       29.89F
ST INIGOES     CLOUDY    78  72  81 SW12      29.90F
LEONARDTOWN*   CLOUDY    75  68  78 SW8       29.92F

$$

MDZ003>005-230900-
NORTH CENTRAL MARYLAND

CITY           SKY/WX    TMP DP  RH WIND       PRES   REMARKS
FREDERICK*     MOCLDY    75  73  94 S3        29.88F
HAGERSTOWN APT MOCLDY    77  72  84 S8        29.86F
WESTMINSTER*   CLOUDY    75  72  88 S5        29.88S

$$

MDZ501>502-230900-
WESTERN MARYLAND

CITY           SKY/WX    TMP DP  RH WIND       PRES   REMARKS
OAKLAND*       NOT AVBL
CUMBERLAND*    CLOUDY    72  72 100 CALM      29.91F

$$

VAZ025>031-230900-
SHENANDOAH VALLEY

CITY           SKY/WX    TMP DP  RH WIND       PRES   REMARKS
WINCHESTER*    LGT RAIN  72  66  83 SW9G17    29.89F
FRONT ROYAL*   MOCLDY    72  68  88 SW3       29.89F
LURAY*         RAIN      72  68  88 SW8       29.93F
NEW MARKET*    CLOUDY    70  68  93 S3        29.92F
STAUNTON*      CLOUDY    69  66  92 S5        29.98S
WAYNESBORO*    CLOUDY    68  67  98 SW6       29.97F

$$

WVZ021-048>050-054>055-230900-
EASTERN WEST VIRGINIA PANHANDLE

CITY           SKY/WX    TMP DP  RH WIND       PRES   REMARKS
MARTINSBURG    CLOUDY    76  67  73 SW7       29.86F
PETERSBURG*    HVY RAIN  71  69  94 S7        29.92F

$$

VAZ036>039-050-230900-
CENTRAL FOOTHILLS

CITY           SKY/WX    TMP DP  RH WIND       PRES   REMARKS
CHARLOTTESVILL CLOUDY    74  69  85 S6        29.92F
CULPEPER*      LGT RAIN  76  70  82 SW7       29.91S
ORANGE*        CLOUDY    72  68  88 CALM      29.91F
GORDONSVILLE*  MOCLDY    73  72  94 SW5       29.92F
WARRENTON*     CLOUDY    76  68  74 SW5       29.89F

$$

VAZ055>057-230900-
NORTH AND CENTRAL PIEDMONT

CITY           SKY/WX    TMP DP  RH WIND       PRES   REMARKS
FREDERICKSBRG* CLOUDY    77  71  81 SW8       29.90F
STAFFORD*      CLOUDY    76  73  90 SW5       29.94F

$$

NCZ024-NYZ072-PAZ021-071-VAZ022-071-230900-
OTHER REGIONAL OBSERVATIONS

CITY           SKY/WX    TMP DP  RH WIND       PRES   REMARKS
NEW YORK CITY  CLOUDY    79  70  74 VRB3      29.86F
PHILADELPHIA   MOCLDY    77  72  84 S8        29.86F
PITTSBURGH     CLOUDY    71  67  87 S6        29.84F
ROANOKE        CLOUDY    71  71 100 CALM      30.00F
RICHMOND       CLOUDY    77  71  82 SW9       29.94F
RALEIGH        LGT RAIN  73  72  96 SW5       30.01F

$$

ANZ530>537-230900-
MARINE OBSERVATIONS

STATION/POSITION TIME  TEMP    WIND        PRES
                       AIR SEA DIR/SP/G
                 (UTC) (F)     (DEG/KT/KT) (MB)
THOMAS PT LIGHT  0800   77 78  200/ 10/ 11   N/A
BALT KEY BRIDGE  0748   78     210/  7/  9 1010.6F
COVE POINT       0748   77     260/ 11/ 19 1012.6F
LEWISETTA        0748   77 79  250/ 11/ 12 1012.7F
SOLOMONS ISLAND  0748   77 77  230/ 14/ 16   N/A
PINEY POINT      0748          260/  7/  9   N/A

$$





USA.gov is the U.S. government's official web portal to all federal, state and local government web resources and services.